Flag for U.S.A. Weather past 2 weeks in Panama City, Florida, U.S.A.

Now
86 °F

Sunny.


Feels Like: 97 °F
Forecast: 80 / 93 °F
Wind: 7 mph from Northwest

Location: Tyndall Air Force Base

Current Time: Aug 22, 2014 at 9:53:12 AM

Latest Report: Aug 22, 2014 at 8:58 AM


Visibility: 10 mi

Pressure: 30.11 "Hg

Humidity: 76%

Dew point: 78 °F

Location of Panama CityLocation

Historic Weather in Panama City — Graph

°F

Panama City temperature yesterday

Maximum temperature yesterday: 91 °F (at 2:58 PM)
Minimum temperature yesterday: 78 °F (at 4:58 AM)
Average temperature yesterday: 85 °F

Past Weeks' High & Low Weather Summary

 TemperatureHumidityPressure
High91 °F (Aug 20, 2:58 PM)100% (Aug 8, 2:58 AM)30.17 "Hg (Aug 8, 2:58 AM)
Low73 °F (Aug 16, 5:58 AM)51% (Aug 16, 12:58 PM)29.92 "Hg (Aug 13, 4:03 AM)
Average83 °F81%30.02 "Hg
* Reported Aug 7 8:58 AM — Aug 22 8:58 AM, Panama City, Weather by CustomWeather, © 2014

Note: Actual official high and low records may vary slightly from our data, if they occured in-between our weather recording intervals... More about our weather records

Advertising

Panama City weather history for previous 24 hours

 ConditionsComfort  
Time TempWeatherWind HumidityBarometerVisibility
8:58 AM
Aug 22
86 °FSunny.7 mph76%30.11 "Hg10 mi
7:58 AM83 °FSunny.7 mph95%30.11 "Hg10 mi
6:58 AM78 °FSunny.No wind100%30.11 "Hg10 mi
5:58 AM78 °FClear.No wind100%30.09 "Hg10 mi
4:58 AM77 °FClear.2 mph100%30.07 "Hg10 mi
3:58 AM77 °FClear.1 mph100%30.06 "Hg10 mi
2:58 AM78 °FClear.No wind99%30.06 "Hg10 mi
1:58 AM78 °FClear.No wind99%30.08 "Hg10 mi
12:58 AM80 °FClear.1 mph96%30.10 "Hg10 mi
11:58 PM
Aug 21
80 °FClear.1 mph90%30.12 "Hg10 mi
10:58 PM81 °FClear.5 mph86%30.13 "Hg10 mi
9:58 PM84 °FPassing clouds.5 mph78%30.14 "Hg10 mi
8:58 PM84 °FClear.7 mph79%30.12 "Hg10 mi
7:58 PM85 °FClear.7 mph77%30.10 "Hg10 mi
6:58 PM85 °FSunny.8 mph75%30.09 "Hg10 mi
5:58 PM87 °FSunny.8 mph73%30.08 "Hg10 mi
4:58 PM89 °FSunny.9 mph68%30.08 "Hg10 mi
3:58 PM90 °FSunny.13 mph65%30.07 "Hg10 mi
2:58 PM91 °FSunny.10 mph70%30.10 "Hg10 mi
1:58 PM90 °FSunny.12 mph72%30.12 "Hg10 mi
12:58 PM90 °FSunny.10 mph71%30.14 "Hg10 mi
11:58 AM89 °FScattered clouds.8 mph72%30.15 "Hg10 mi
10:58 AM90 °FSunny.2 mph70%30.16 "Hg10 mi
9:58 AM88 °FSunny.6 mph72%30.16 "Hg10 mi
Weather by CustomWeather, © 2014

See weather overviewHow to use our weather pages